STARLINK-31332, 59566

Orbit data source: Space-Track

STARLINK-31332, 59566 is a payload satellite owned by SpaceX/Seattle (US) in LEO that was launched on Tue, 23 Apr 2024 UTC via an FALCON 9 launch vehicle from the Air Force Eastern Test Range (AFETR). Payload-class satellites include a variety of spacecraft equipped with specific instruments for various scientific and technological missions. These include communications satellites like Starlink; space stations such as the ISS; scientific satellites like the Hubble; Earth observation satellites from companies like Planet Labs, Umbra, and HawkEye 360; GPS; miniature CubeSats for education and research; and military/defense satellites.

Loading next visibility...
Identifier
59566, 2024-076C
Orbit
LEO
Country
Flag of USUS
Related business
Manufacturer
SpaceX/Seattle
Mission
Operational spacecraft
Bus & Motor
STARLINK V2M, Unknown motor
Mass
730 kg wet, ~700 kg dry
Launch date (UTC)
2024-04-23 (1 year ago)
Launch vehicle
FALCON 9
Launch site
Air Force Eastern Test Range (AFETR)
Object type
Payload
Rocket body
Debris
Shape & HBR
Unknown
Radar Cross Section
Large (>1 m²)

Expand to show TLE details & history
Last TLE update: 21 hours ago

TLE from 21 hours ago
0 STARLINK-31332
1 59566U 24076C   25257.46246194  .00009115  00000-0  33968-3 0  9995
2 59566  43.0036 284.0111 0001052 272.0729  88.0002 15.27642888 79558
Epoch: 2025-09-14T11:05Z
TLE epoch observation values (Epoch: 2025-09-14T11:05:56.711Z)
Latitude
-0.00004°
Longitude
123.84364°
Altitude
482.611 km
Speed
7.626 km/s
True Right ascension
18h 56m 02s
True Declination
0° 00' 00"
Sunlit
Object was in partial shadow at epoch
Visualization orbit readout
Latitude
Unknown
Longitude
Unknown
Altitude
Unknown
Speed
Unknown
Apparent Right ascension
Unknown
Apparent Declination
Unknown
Sunlit
N/A
Visualization observer readout
Local Sidereal Time
00:38:59
Azimuth
Unknown
Elevation
Unknown
Doppler factor
Unknown
Orbital elements
Apogee altitude
485.527 km
Perigee altitude
484.083 km
Semi-major axis
6,862.942 km
Eccentricity
0.00011
Inclination
43.0036°
RAAN
284.0111°
Arg. of periapsis
272.0729°
True anomaly
88.01225°
Mean anomaly
88.0002°
Eccentric anomaly
88.00622°
Mean motion
3.81749 °/min
Orbital period
94.3 mins
BSTAR
0.00033968
Loading maneuver chart data...
Computing Atmospheric mass density...
Loading historical data...
Loading historical data...
Loading historical data...
Loading historical data...
Loading historical data...
Loading historical data...
Loading historical data...

Documentation

Showing up to 5 results
|